SCP
0 0 0 0 0 0 0 0 0 0 0 0 0 0 0 0 0 0 0 0 0 0 0 0 0 0 0 0 0 0 0 0 0 0 0 0 0 0 0 0 0 0 0 0 0
0 0 0 0 0 0 0 0 0 0 0 0 0 0 0 0 0 0 0 0 0 0 0 0 0 0 0 0 0 0 0 0 0 0 0 0 0 0 0 0 0 0 0 0 0
0 0 0 0 0 0 0 0 0 0 0 0 0 0 0 0 0 0 0 0 0 0 0 0 0 0 0 0 0 0 0 0 0 0 0 0 0 0 0 0 0 0 0 0 0
0 0 0 0 0 0 0 0 0 0 0 0 0 0 0 0 0 0 0 0 0 0 0 0 0 0 0 0 0 0 0 0 0 0 0 0 0 0 0 0 0 0 0 0 0
0 0 0 0 0 0 0 0 0 0 0 0 0 0 0 0 0 0 0 0 0 0 0 0 0 0 0 0 0 0 0 0 0 0 0 0 0 0 0 0 0 0 0 0 0
0 0 0 0 0 0 0 0 0 0 0 0 0 0 0 0 0 0 0 0 0 0 0 0 0 0 0 0 0 0 0 0 0 0 0 0 0 0 0 0 0 0 0 0 0
0 0 0 0 0 0 0 0 0 0 0 0 0 0 0 0 0 0 0 0 0 0 0 0 0 0 0 0 0 0 0 0 0 0 0 0 0 0 0 0 0 0 0 0 0
0 0 0 0 0 0 0 0 0 0 0 0 0 0 0 0 0 0 0 0 0 0 0 0 0 0 0 0 0 0 0 0 0 0 0 0 0 0 0 0 0 0 0 0 0
0 0 0 0 0 0 0 0 0 0 0 0 0 0 0 0 0 0 0 0 0 0 0 0 0 0 0 0 0 0 0 0 0 0 0 0 0 0 0 0 0 0 0 0 0
0 0 0 0 0 0 0 0 0 0 0 0 0 0 0 0 0 0 0 0 0 0 0 0 0 0 0 0 0 0 0 0 0 0 0 0 0 0 0 0 0 0 0 0 0
0 0 0 0 0 0 0 0 0 0 0 0 0 0 0 0 0 0 0 0 0 0 0 0 0 0 0 0 0 0 0 0 0 0 0 0 0 0 0 0 0 0 0 0 0
0 0 0 0 0 0 0 0 0 0 0 0 0 0 0 0 0 0 0 0 0 0 0 0 0 0 0 0 0 0 0 0 0 0 0 0 0 0 0 0 0 0 0 0 0
0 0 -0 0 0 0 0 0 0 0 0 0 0 0 0 0 0 0 0 0 0 0 0 0 0 0 0 0 0 0 0 0 0 0 0 0 0 0 0 0 0 0 0 0 0
0 0 0 0 -0 -0 0 0 0 0 0 0 0 0 0 0 0 0 0 0 0 0 0 0 0 0 0 0 0 0 0 0 0 0 0 0 0 0 0 0 0 0 0 0 0
0 0 0 0 0 0 0 0 0 0 0 0 0 0 0 0 0 0 0 0 0 0 0 0 0 0 0 0 0 0 0 0 0 0 0 0 0 -0 0 0 0 0 0 0 0
0 0 0 0 0 0 0 0 0 0 0 0 0 0 0 0 0 0 0 0 0 0 0 0 0 0 0 0 0 0 0 0 0 0 0 0 0 0 0 0 0 0 0 0 0
0 0 0 0 0 0 0 0 0 0 0 0 0 0 0 0 0 0 0 0 0 0 0 0 0 0 0 0 0 0 0 0 0 0 0 0 0 0 0 0 0 0 0 0 0
0 0 0 0 0 0 0 0 -0 0 0 0 0 0 0 0 0 0 0 0 0 0 0 0 0 0 0 0 0 0 0 0 0 0 0 0 0 0 0 0 0 0 0 0 0
0 0 0 0 0 0 0 0 0 -0 0 0 0 0 0 0 0 0 0 0 0 0 0 0 0 0 0 0 0 0 0 0 0 0 0 0 0 0 0 0 0 0 0 0 0
0 0 0 0 0 0 0 0 0 0 0 0 0 0 0 0 0 0 0 0 0 0 0 0 0 0 0 0 0 0 0 0 0 0 0 0 0 0 0 0 0 0 0 0 0
0 0 0 0 0 0 0 0 0 0 0 0 -0 0 0 0 0 0 0 0 0 0 0 0 0 0 0 0 0 0 0 0 0 0 0 0 0 0 0 0 0 0 0 0 0
0 0 0 0 0 0 0 0 0 0 0 0 0 0 0 0 0 0 0 0 0 0 0 0 0 0 0 0 0 0 0 0 0 0 0 0 0 0 0 0 0 0 0 0 0
0 0 0 0 0 0 0 0 0 0 0 0 0 0 0 0 0 0 0 0 0 0 0 0 0 0 0 0 0 0 0 0 0 0 0 0 0 0 0 0 0 0 0 0 0
0 0 0 0 0 0 0 0 0 0 0 0 0 0 0 0 0 0 0 0 0 0 0 0 0 0 0 0 0 0 0 0 0 0 0 0 0 0 0 0 0 0 0 0 0
0 0 0 0 0 0 0 0 0 0 0 0 0 0 0 0 0 0 0 0 0 0 0 -0 0 0 0 0 0 0 0 0 0 0 0 0 0 0 0 0 0 0 0 0 0
0 0 0 0 0 0 0 0 0 0 0 0 0 0 0 0 0 0 0 0 0 0 0 0 -0 0 0 0 0 0 0 0 0 0 0 0 0 0 0 0 0 0 0 0 0
0 0 0 0 0 0 0 0 0 0 0 0 0 0 0 0 0 0 0 0 0 0 0 0 0 0 0 0 0 0 0 0 0 0 0 0 0 0 0 0 0 0 0 0 0
Wind_Speed_500mb
32 38 36 31 30 27 30 29 28 21 29 30 29 31 33 39 43 38 38 16 20 29 23 12 12 17 24 21 17 12 6 9 13 16 12 6 5 5 7 10 9 11 15 11 37
35 36 32 30 30 28 31 31 29 28 26 29 25 30 33 39 45 42 29 26 27 27 23 25 12 18 14 13 16 13 10 20 14 13 6 5 6 9 6 9 3 8 14 23 38
37 34 39 32 34 33 36 35 33 32 32 31 28 29 29 36 39 7 5 8 28 31 28 20 23 20 15 14 17 13 13 10 9 7 5 3 7 13 6 6 15 19 25 36 38
40 39 36 42 39 41 39 42 39 38 30 36 30 24 21 26 9 9 5 9 7 25 27 31 26 12 12 11 26 8 25 25 9 8 2 2 7 11 8 6 8 6 16 40 44
44 48 47 52 51 49 47 48 47 46 39 38 32 30 31 22 30 20 23 8 7 11 34 34 27 18 13 13 21 6 6 23 37 28 26 19 22 17 19 13 6 11 17 34 41
47 43 47 51 43 43 53 40 37 45 43 37 33 32 36 26 26 18 19 18 12 12 14 39 18 25 11 10 12 6 18 35 43 38 25 11 14 19 18 32 25 20 20 27 33
61 58 48 48 48 44 41 44 42 45 46 39 31 38 54 61 27 14 23 22 20 21 21 28 30 14 7 7 13 17 8 11 15 10 13 10 18 17 55 42 24 25 33 34 34
50 52 59 50 49 47 43 47 55 45 50 53 45 42 65 37 43 56 39 31 23 29 26 17 40 30 8 14 14 7 8 11 6 20 10 23 28 9 57 54 59 66 52 44 46
57 59 54 57 55 55 50 44 44 57 46 49 55 42 40 21 63 58 39 39 29 29 28 23 23 24 8 6 7 7 7 9 6 17 13 19 4 21 52 37 44 56 70 65 51
62 64 60 57 58 62 59 59 54 45 52 45 51 25 55 15 25 36 45 46 27 21 21 22 16 10 7 13 25 11 9 11 17 15 16 18 25 11 26 33 31 39 52 56 65
59 59 67 60 58 58 56 46 41 32 52 48 30 51 5 46 17 42 47 68 35 13 13 16 12 37 64 33 4 9 10 13 8 12 15 29 33 24 40 36 28 31 31 39 54
63 65 64 59 58 54 58 70 63 11 16 77 77 59 68 0 22 35 46 43 33 30 8 11 45 34 15 21 25 21 8 11 9 13 8 15 22 18 29 38 52 61 52 48 36
56 53 54 70 65 65 65 81 69 62 15 27 84 85 52 66 35 47 62 54 35 32 33 23 10 36 21 17 31 37 37 14 8 2 5 5 17 9 13 34 42 55 54 53 50
55 53 48 46 52 73 68 59 65 65 14 22 36 43 67 61 22 46 71 62 19 43 34 30 39 8 16 31 26 27 31 19 14 2 12 7 14 12 12 23 31 49 64 72 73
58 53 49 48 52 39 54 44 64 60 26 23 40 30 59 65 28 53 58 54 29 27 18 24 23 35 31 37 25 24 15 27 18 11 1 12 6 12 12 19 26 38 69 83 87
53 53 50 53 55 63 56 47 49 25 26 7 35 33 33 61 73 30 57 51 17 23 32 53 26 20 35 15 34 10 3 7 7 11 19 33 20 11 13 19 16 19 47 52 50
51 51 50 47 59 52 49 38 14 45 16 12 30 39 54 42 55 43 39 38 27 21 29 27 30 6 12 21 15 17 18 6 11 12 20 20 15 40 10 7 11 8 36 26 30
50 48 50 51 50 46 38 19 28 23 15 2 18 42 54 39 42 56 48 39 36 17 14 27 18 39 10 21 19 34 33 10 18 12 22 15 18 20 21 50 50 20 17 36 60
41 43 48 51 48 46 36 24 10 14 8 15 22 33 30 36 15 42 50 49 44 32 25 24 26 5 24 8 28 13 25 40 5 6 5 9 13 19 15 14 14 30 42 57 64
40 40 59 50 45 44 22 39 15 15 10 17 40 24 27 41 30 35 42 34 34 45 31 13 14 14 37 13 26 27 42 14 14 12 10 10 10 22 6 18 21 20 38 55 67
37 16 33 28 41 29 16 13 10 10 8 12 19 7 5 24 42 22 15 14 51 35 48 21 15 4 23 23 43 25 28 12 13 8 20 10 12 12 19 19 34 29 49 65 69
31 9 19 35 18 5 16 10 9 10 33 7 4 2 8 2 21 22 20 7 4 39 41 41 12 16 34 18 38 43 38 34 17 15 17 6 14 4 8 13 39 44 45 62 66
21 23 24 51 8 10 6 8 13 7 15 21 17 9 5 13 10 11 8 16 8 8 6 25 14 14 16 3 7 29 31 39 34 4 21 23 15 10 3 22 44 58 61 69 63
24 8 14 41 15 12 8 6 9 18 10 4 8 9 8 6 10 10 13 10 29 14 9 4 17 22 26 27 21 20 41 32 38 25 26 26 14 4 10 34 33 47 57 67 59
40 14 18 10 7 10 13 12 4 2 1 13 5 7 14 7 5 5 2 4 1 3 13 8 12 23 32 15 18 36 39 47 39 45 35 34 39 19 27 35 44 56 65 63 53
32 14 14 5 29 10 19 11 24 11 7 4 6 19 9 15 13 13 12 7 9 2 5 6 9 19 46 23 26 33 42 43 48 48 32 21 11 18 32 42 40 44 54 56 49
55 44 37 13 7 12 11 14 20 17 8 16 22 11 6 14 13 10 23 13 11 14 8 9 9 9 19 18 16 9 35 37 43 48 45 28 22 19 18 29 44 49 54 54 45
Wind_Direction_500mb
279 281 283 284 280 280 293 300 308 320 297 313 298 299 299 298 295 297 292 280 250 230 225 223 219 193 190 192 180 172 97 216 211 167 233 307 7 265 187 154 170 174 176 196 178
278 290 288 271 281 273 270 284 297 299 306 319 311 302 314 308 305 300 292 265 237 229 224 220 211 183 183 203 195 166 165 214 211 201 200 315 328 319 288 164 163 173 186 175 176
266 273 273 279 272 266 267 268 273 283 294 302 322 324 312 316 313 316 329 281 235 223 217 205 199 189 208 193 195 193 200 205 232 180 174 223 284 323 240 219 205 199 182 177 183
274 271 272 278 264 262 264 265 264 270 270 277 294 308 304 306 278 193 105 22 261 234 219 208 210 193 202 200 209 187 233 229 211 183 230 177 287 291 257 269 185 190 226 199 200
279 264 265 266 270 263 260 263 266 262 263 254 266 282 289 276 256 256 267 273 320 249 220 210 207 195 186 199 226 218 248 232 245 251 266 254 228 232 253 209 243 258 215 213 213
276 277 269 271 273 277 256 263 263 251 264 254 250 256 256 243 273 249 258 243 235 258 231 210 212 216 241 233 177 217 220 256 263 262 248 227 247 209 232 242 241 235 234 220 219
267 268 270 270 270 265 256 260 261 261 263 261 258 252 246 242 247 263 245 258 234 241 228 221 201 211 4 295 293 268 268 272 244 240 210 211 273 223 246 231 222 221 222 225 237
279 272 266 269 264 259 256 255 257 258 245 254 258 265 257 254 256 247 241 255 240 221 229 223 214 238 225 291 319 217 158 228 238 175 223 167 242 260 240 237 238 243 241 233 232
270 270 269 260 259 260 262 259 268 256 257 253 254 256 266 254 223 243 244 229 228 215 220 198 200 207 187 147 341 265 214 202 293 204 178 192 222 229 241 238 237 246 246 240 232
269 271 271 264 260 254 258 264 269 265 251 245 244 247 244 186 213 222 224 211 204 212 218 200 188 172 182 177 213 191 197 222 201 220 203 220 234 291 227 232 235 249 256 252 236
269 265 267 265 262 258 254 250 240 240 226 202 204 207 130 214 222 208 211 201 202 204 191 195 184 209 211 204 170 195 200 213 223 241 208 241 249 230 248 245 242 253 262 262 246
278 273 271 265 264 256 246 231 221 231 223 228 229 228 223 28 185 212 196 175 192 205 191 188 218 213 153 194 214 237 228 243 289 256 179 286 266 224 226 242 245 256 253 252 253
274 273 273 273 268 262 250 240 234 226 255 216 226 232 225 226 206 188 185 187 192 200 197 207 196 195 185 176 199 219 222 201 200 21 242 347 285 202 245 245 243 241 246 250 247
271 271 263 265 264 257 257 244 236 219 239 204 198 233 216 213 228 195 193 179 205 206 201 231 240 169 196 211 190 217 221 228 213 199 250 148 275 264 215 224 236 239 242 244 246
270 268 262 252 247 242 253 247 248 218 240 189 192 215 205 195 166 195 191 199 200 175 172 214 177 216 229 218 199 233 176 193 197 201 188 241 258 252 201 226 237 242 241 246 249
267 267 263 257 249 251 253 263 257 216 236 190 159 170 159 198 211 165 191 201 175 202 200 223 186 184 224 177 200 156 167 113 148 188 230 225 193 231 193 215 238 250 254 258 239
267 263 259 253 246 245 254 248 250 221 133 180 175 173 186 190 204 193 197 196 184 183 194 214 222 236 162 193 194 184 152 186 207 201 225 206 184 242 241 248 229 257 272 243 202
268 257 257 250 247 247 234 223 229 257 168 193 166 182 192 179 205 198 200 206 200 214 179 201 200 218 185 198 194 205 200 183 199 199 229 119 211 238 229 235 248 275 273 158 146
261 255 254 247 239 237 225 232 223 222 195 166 183 173 195 190 151 200 212 208 205 202 203 195 224 169 203 154 165 194 202 213 78 37 118 199 265 299 237 236 166 145 144 137 139
247 253 259 252 237 223 230 238 246 201 229 243 192 173 178 183 183 194 193 209 213 199 216 214 219 204 206 151 206 182 196 177 205 173 210 239 230 224 173 190 162 146 141 132 136
231 238 260 249 217 203 230 227 213 223 176 193 245 255 223 171 184 178 187 183 209 207 204 203 200 249 137 194 196 204 196 208 188 185 215 222 238 220 212 186 175 155 149 141 140
204 225 221 185 195 220 231 191 181 206 203 213 124 92 233 172 182 186 187 155 27 200 205 209 220 212 198 196 215 203 202 203 213 192 227 224 254 3 260 188 152 142 138 139 139
195 212 186 178 215 206 214 204 207 153 173 169 169 167 250 163 116 134 146 158 149 136 231 191 202 187 183 246 339 203 205 207 215 123 202 211 240 13 94 138 149 139 141 142 139
180 192 182 198 205 163 191 193 178 178 172 110 108 126 98 351 27 175 170 166 151 157 256 231 223 214 208 197 157 183 209 206 204 217 219 213 241 63 128 138 141 143 141 145 143
182 209 181 189 188 168 174 173 126 112 239 139 160 158 147 142 41 139 188 75 103 160 111 182 248 224 217 237 173 192 203 205 206 215 210 219 221 180 172 161 156 148 144 142 140
172 161 174 168 146 149 175 213 177 174 145 181 192 202 153 161 179 183 148 175 191 257 114 101 330 301 227 207 194 204 212 209 208 215 220 219 227 172 159 140 140 149 144 143 146
191 185 173 170 112 128 208 188 194 141 203 200 205 130 180 209 171 160 180 145 158 155 133 131 100 12 297 182 117 225 206 200 204 217 210 202 205 140 146 158 156 153 155 154 154
Wind_Speed_850mb
32 38 36 31 30 27 30 29 28 21 29 30 29 31 33 39 43 38 38 16 20 29 23 12 12 17 24 21 17 12 6 9 13 16 12 6 5 5 7 10 9 11 15 11 37
35 36 32 30 30 28 31 31 29 28 26 29 25 30 33 39 45 42 29 26 27 27 23 25 12 18 14 13 16 13 10 20 14 13 6 5 6 9 6 9 3 8 14 23 38
37 34 39 32 34 33 36 35 33 32 32 31 28 29 29 36 39 7 5 8 28 31 28 20 23 20 15 14 17 13 13 10 9 7 5 3 7 13 6 6 15 19 25 36 38
40 39 36 42 39 41 39 42 39 38 30 36 30 24 21 26 9 9 5 9 7 25 27 31 26 12 12 11 26 8 25 25 9 8 2 2 7 11 8 6 8 6 16 40 44
44 48 47 52 51 49 47 48 47 46 39 38 32 30 31 22 30 20 23 8 7 11 34 34 27 18 13 13 21 6 6 23 37 28 26 19 22 17 19 13 6 11 17 34 41
47 43 47 51 43 43 53 40 37 45 43 37 33 32 36 26 26 18 19 18 12 12 14 39 18 25 11 10 12 6 18 35 43 38 25 11 14 19 18 32 25 20 20 27 33
61 58 48 48 48 44 41 44 42 45 46 39 31 38 54 61 27 14 23 22 20 21 21 28 30 14 7 7 13 17 8 11 15 10 13 10 18 17 55 42 24 25 33 34 34
50 52 59 50 49 47 43 47 55 45 50 53 45 42 65 37 43 56 39 31 23 29 26 17 40 30 8 14 14 7 8 11 6 20 10 23 28 9 57 54 59 66 52 44 46
57 59 54 57 55 55 50 44 44 57 46 49 55 42 40 21 63 58 39 39 29 29 28 23 23 24 8 6 7 7 7 9 6 17 13 19 4 21 52 37 44 56 70 65 51
62 64 60 57 58 62 59 59 54 45 52 45 51 25 55 15 25 36 45 46 27 21 21 22 16 10 7 13 25 11 9 11 17 15 16 18 25 11 26 33 31 39 52 56 65
59 59 67 60 58 58 56 46 41 32 52 48 30 51 5 46 17 42 47 68 35 13 13 16 12 37 64 33 4 9 10 13 8 12 15 29 33 24 40 36 28 31 31 39 54
63 65 64 59 58 54 58 70 63 11 16 77 77 59 68 0 22 35 46 43 33 30 8 11 45 34 15 21 25 21 8 11 9 13 8 15 22 18 29 38 52 61 52 48 36
56 53 54 70 65 65 65 81 69 62 15 27 84 85 52 66 35 47 62 54 35 32 33 23 10 36 21 17 31 37 37 14 8 2 5 5 17 9 13 34 42 55 54 53 50
55 53 48 46 52 73 68 59 65 65 14 22 36 43 67 61 22 46 71 62 19 43 34 30 39 8 16 31 26 27 31 19 14 2 12 7 14 12 12 23 31 49 64 72 73
58 53 49 48 52 39 54 44 64 60 26 23 40 30 59 65 28 53 58 54 29 27 18 24 23 35 31 37 25 24 15 27 18 11 1 12 6 12 12 19 26 38 69 83 87
53 53 50 53 55 63 56 47 49 25 26 7 35 33 33 61 73 30 57 51 17 23 32 53 26 20 35 15 34 10 3 7 7 11 19 33 20 11 13 19 16 19 47 52 50
51 51 50 47 59 52 49 38 14 45 16 12 30 39 54 42 55 43 39 38 27 21 29 27 30 6 12 21 15 17 18 6 11 12 20 20 15 40 10 7 11 8 36 26 30
50 48 50 51 50 46 38 19 28 23 15 2 18 42 54 39 42 56 48 39 36 17 14 27 18 39 10 21 19 34 33 10 18 12 22 15 18 20 21 50 50 20 17 36 60
41 43 48 51 48 46 36 24 10 14 8 15 22 33 30 36 15 42 50 49 44 32 25 24 26 5 24 8 28 13 25 40 5 6 5 9 13 19 15 14 14 30 42 57 64
40 40 59 50 45 44 22 39 15 15 10 17 40 24 27 41 30 35 42 34 34 45 31 13 14 14 37 13 26 27 42 14 14 12 10 10 10 22 6 18 21 20 38 55 67
37 16 33 28 41 29 16 13 10 10 8 12 19 7 5 24 42 22 15 14 51 35 48 21 15 4 23 23 43 25 28 12 13 8 20 10 12 12 19 19 34 29 49 65 69
31 9 19 35 18 5 16 10 9 10 33 7 4 2 8 2 21 22 20 7 4 39 41 41 12 16 34 18 38 43 38 34 17 15 17 6 14 4 8 13 39 44 45 62 66
21 23 24 51 8 10 6 8 13 7 15 21 17 9 5 13 10 11 8 16 8 8 6 25 14 14 16 3 7 29 31 39 34 4 21 23 15 10 3 22 44 58 61 69 63
24 8 14 41 15 12 8 6 9 18 10 4 8 9 8 6 10 10 13 10 29 14 9 4 17 22 26 27 21 20 41 32 38 25 26 26 14 4 10 34 33 47 57 67 59
40 14 18 10 7 10 13 12 4 2 1 13 5 7 14 7 5 5 2 4 1 3 13 8 12 23 32 15 18 36 39 47 39 45 35 34 39 19 27 35 44 56 65 63 53
32 14 14 5 29 10 19 11 24 11 7 4 6 19 9 15 13 13 12 7 9 2 5 6 9 19 46 23 26 33 42 43 48 48 32 21 11 18 32 42 40 44 54 56 49
55 44 37 13 7 12 11 14 20 17 8 16 22 11 6 14 13 10 23 13 11 14 8 9 9 9 19 18 16 9 35 37 43 48 45 28 22 19 18 29 44 49 54 54 45
Wind_Direction_850mb
279 281 283 284 280 280 293 300 308 320 297 313 298 299 299 298 295 297 292 280 250 230 225 223 219 193 190 192 180 172 97 216 211 167 233 307 7 265 187 154 170 174 176 196 178
278 290 288 271 281 273 270 284 297 299 306 319 311 302 314 308 305 300 292 265 237 229 224 220 211 183 183 203 195 166 165 214 211 201 200 315 328 319 288 164 163 173 186 175 176
266 273 273 279 272 266 267 268 273 283 294 302 322 324 312 316 313 316 329 281 235 223 217 205 199 189 208 193 195 193 200 205 232 180 174 223 284 323 240 219 205 199 182 177 183
274 271 272 278 264 262 264 265 264 270 270 277 294 308 304 306 278 193 105 22 261 234 219 208 210 193 202 200 209 187 233 229 211 183 230 177 287 291 257 269 185 190 226 199 200
279 264 265 266 270 263 260 263 266 262 263 254 266 282 289 276 256 256 267 273 320 249 220 210 207 195 186 199 226 218 248 232 245 251 266 254 228 232 253 209 243 258 215 213 213
276 277 269 271 273 277 256 263 263 251 264 254 250 256 256 243 273 249 258 243 235 258 231 210 212 216 241 233 177 217 220 256 263 262 248 227 247 209 232 242 241 235 234 220 219
267 268 270 270 270 265 256 260 261 261 263 261 258 252 246 242 247 263 245 258 234 241 228 221 201 211 4 295 293 268 268 272 244 240 210 211 273 223 246 231 222 221 222 225 237
279 272 266 269 264 259 256 255 257 258 245 254 258 265 257 254 256 247 241 255 240 221 229 223 214 238 225 291 319 217 158 228 238 175 223 167 242 260 240 237 238 243 241 233 232
270 270 269 260 259 260 262 259 268 256 257 253 254 256 266 254 223 243 244 229 228 215 220 198 200 207 187 147 341 265 214 202 293 204 178 192 222 229 241 238 237 246 246 240 232
269 271 271 264 260 254 258 264 269 265 251 245 244 247 244 186 213 222 224 211 204 212 218 200 188 172 182 177 213 191 197 222 201 220 203 220 234 291 227 232 235 249 256 252 236
269 265 267 265 262 258 254 250 240 240 226 202 204 207 130 214 222 208 211 201 202 204 191 195 184 209 211 204 170 195 200 213 223 241 208 241 249 230 248 245 242 253 262 262 246
278 273 271 265 264 256 246 231 221 231 223 228 229 228 223 28 185 212 196 175 192 205 191 188 218 213 153 194 214 237 228 243 289 256 179 286 266 224 226 242 245 256 253 252 253
274 273 273 273 268 262 250 240 234 226 255 216 226 232 225 226 206 188 185 187 192 200 197 207 196 195 185 176 199 219 222 201 200 21 242 347 285 202 245 245 243 241 246 250 247
271 271 263 265 264 257 257 244 236 219 239 204 198 233 216 213 228 195 193 179 205 206 201 231 240 169 196 211 190 217 221 228 213 199 250 148 275 264 215 224 236 239 242 244 246
270 268 262 252 247 242 253 247 248 218 240 189 192 215 205 195 166 195 191 199 200 175 172 214 177 216 229 218 199 233 176 193 197 201 188 241 258 252 201 226 237 242 241 246 249
267 267 263 257 249 251 253 263 257 216 236 190 159 170 159 198 211 165 191 201 175 202 200 223 186 184 224 177 200 156 167 113 148 188 230 225 193 231 193 215 238 250 254 258 239
267 263 259 253 246 245 254 248 250 221 133 180 175 173 186 190 204 193 197 196 184 183 194 214 222 236 162 193 194 184 152 186 207 201 225 206 184 242 241 248 229 257 272 243 202
268 257 257 250 247 247 234 223 229 257 168 193 166 182 192 179 205 198 200 206 200 214 179 201 200 218 185 198 194 205 200 183 199 199 229 119 211 238 229 235 248 275 273 158 146
261 255 254 247 239 237 225 232 223 222 195 166 183 173 195 190 151 200 212 208 205 202 203 195 224 169 203 154 165 194 202 213 78 37 118 199 265 299 237 236 166 145 144 137 139
247 253 259 252 237 223 230 238 246 201 229 243 192 173 178 183 183 194 193 209 213 199 216 214 219 204 206 151 206 182 196 177 205 173 210 239 230 224 173 190 162 146 141 132 136
231 238 260 249 217 203 230 227 213 223 176 193 245 255 223 171 184 178 187 183 209 207 204 203 200 249 137 194 196 204 196 208 188 185 215 222 238 220 212 186 175 155 149 141 140
204 225 221 185 195 220 231 191 181 206 203 213 124 92 233 172 182 186 187 155 27 200 205 209 220 212 198 196 215 203 202 203 213 192 227 224 254 3 260 188 152 142 138 139 139
195 212 186 178 215 206 214 204 207 153 173 169 169 167 250 163 116 134 146 158 149 136 231 191 202 187 183 246 339 203 205 207 215 123 202 211 240 13 94 138 149 139 141 142 139
180 192 182 198 205 163 191 193 178 178 172 110 108 126 98 351 27 175 170 166 151 157 256 231 223 214 208 197 157 183 209 206 204 217 219 213 241 63 128 138 141 143 141 145 143
182 209 181 189 188 168 174 173 126 112 239 139 160 158 147 142 41 139 188 75 103 160 111 182 248 224 217 237 173 192 203 205 206 215 210 219 221 180 172 161 156 148 144 142 140
172 161 174 168 146 149 175 213 177 174 145 181 192 202 153 161 179 183 148 175 191 257 114 101 330 301 227 207 194 204 212 209 208 215 220 219 227 172 159 140 140 149 144 143 146
191 185 173 170 112 128 208 188 194 141 203 200 205 130 180 209 171 160 180 145 158 155 133 131 100 12 297 182 117 225 206 200 204 217 210 202 205 140 146 158 156 153 155 154 154